Regional Weather Roundup
Issued by NWS State College, PA

Home | Current Version | Previous Version | Graphics & Text | Print | Product List | Glossary Off
Versions: 1 2 3 4 5 6 7 8 9 10 11 12 13 14 15 16 17 18 19 20 21 22 23 24 25 26 27 28 29 30 31 32 33 34 35 36 37 38 39 40 41 42 43 44 45 46 47 48 49 50

000
ASUS41 KCTP 070803
RWRCTP

REGIONAL WEATHER ROUNDUP
NATIONAL WEATHER SERVICE STATE COLLEGE PA
400 AM EDT THU MAY 07 2015

Note: "fair" indicates few or no clouds below 12,000 feet with no
significant weather and/or obstructions to visibility.

* = STATION THAT DOES NOT REPORT PRECIPITATION /E.G. RAIN...SNOW...ETC/
    THUNDER OR FOG.

PAZ002>004-007>009-013>016-020>023-029>032-070900-
WESTERN PENNSYLVANIA

CITY           SKY/WX    TMP DP  RH WIND       PRES   REMARKS
ERIE           CLEAR     52  49  89 CALM      30.16R
MEADVILLE      CLEAR     56  53  90 CALM      30.17S FOG
FRANKLIN*      CLEAR     55  52  88 E3        30.19S
NEW CASTLE     FAIR      56  56 100 CALM      30.17S
BEAVER COUNTY  NOT AVBL
BUTLER*          N/A     55  54  94 NE6       30.17S VSB<1/4
PITTSBURGH INT CLEAR     61  58  90 CALM      30.14F
PITTSBURGH     CLEAR     62  56  80 SE3       30.14S
INDIANA*       MOCLDY    55  55 100 SE5       30.20R FOG
LATROBE        CLEAR     55  55 100 CALM      30.16S
WASHINGTON CO* MOCLDY    52  48  87 CALM      30.16S VSB 1/4
$$

PAZ004>006-010>012-017>019-024>028-033>037-041-042-045-046-049>053-070900-
CENTRAL PENNSYLVANIA

CITY           SKY/WX    TMP DP  RH WIND       PRES   REMARKS
BRADFORD       FOG       54  53  97 SE5       30.20S VSB 1/4
DUBOIS         FOG       58  55  90 E7        30.18S VSB 1/2
CLEARFIELD     CLOUDY    54  53  97 E6        30.20S FOG
JOHNSTOWN      CLEAR     58  55  90 SW7       30.18S
ALTOONA        CLOUDY    57  55  93 CALM      30.20R FOG
STATE COLLEGE  FOG       52  52  99 CALM      30.20S VSB<1/4
WILLIAMSPORT   CLOUDY    54  52  93 CALM      30.20F
SELINSGROVE    CLOUDY    54  53  97 CALM      30.21S FOG
FT INDIANTOWN  NOT AVBL
CAPITAL CITY   CLOUDY    59  51  75 E3        30.21S
HARRISBURG     CLOUDY    60  52  74 CALM      30.20S
YORK           CLOUDY    55  52  89 CALM      30.20S
$$

PAZ038>040-043-044-047-048-054-055-060>062-067>071-070900-
EASTERN PENNSYLVANIA

CITY           SKY/WX    TMP DP  RH WIND       PRES   REMARKS
SCRANTON       CLOUDY    55  46  71 CALM      30.21F
MOUNT POCONO   CLOUDY    50  46  86 CALM      30.22F
ALLENTOWN      CLOUDY    55  50  83 CALM      30.22F
QUAKERTOWN*    PTSUNNY   52  50  93 CALM      30.23S
READING        CLOUDY    58  51  78 N3        30.21S
LANCASTER      CLOUDY    58  52  80 CALM      30.20F
COATESVILLE    CLOUDY    57  50  77 CALM      30.22S
POTTSTOWN      CLOUDY    56  50  80 CALM      30.23S
BLUE BELL      MOCLDY    54  52  94 CALM      30.21S
DOYLESTOWN     CLOUDY    52  48  86 CALM      30.21S
WILLOW GROVE   NOT AVBL
NORTH PHILA    MOCLDY    56  47  71 CALM      30.23S
PHILADELPHIA   CLOUDY    58  51  78 NE3       30.22S
$$



USA.gov is the U.S. government's official web portal to all federal, state and local government web resources and services.